Time,TemperatureF,DewpointF,PressureIn,WindDirection,WindDirectionDegrees,WindSpeedMPH,WindSpeedGustMPH,Humidity,HourlyPrecipIn,Conditions,Clouds,dailyrainin,SoftwareType,DateUTC
2013-06-18 00:00:00,79.3,68.4,-100.00,ESE,113,1.0,1.0,69,0.00,,,0.00,meteohub,2013-06-18 05:00:00,
2013-06-18 00:02:00,79.3,68.4,-100.00,ESE,113,1.0,1.0,69,0.00,,,0.00,meteohub,2013-06-18 05:02:00,
2013-06-18 00:08:00,79.3,68.7,-100.00,SSW,203,0.0,1.0,70,0.00,,,0.00,meteohub,2013-06-18 05:08:00,
2013-06-18 00:10:00,79.2,68.5,-100.00,SSW,203,0.0,1.0,70,0.00,,,0.00,meteohub,2013-06-18 05:10:00,
2013-06-18 00:12:00,79.2,68.5,-100.00,SW,225,0.0,1.0,70,0.00,,,0.00,meteohub,2013-06-18 05:12:00,
2013-06-18 00:14:00,79.2,68.5,-100.00,SW,225,0.0,1.0,70,0.00,,,0.00,meteohub,2013-06-18 05:14:00,
2013-06-18 00:16:00,79.2,68.5,-100.00,SW,225,0.0,1.0,70,0.00,,,0.00,meteohub,2013-06-18 05:16:00,
2013-06-18 00:20:00,79.0,68.4,-100.00,SE,135,0.0,0.0,70,0.00,,,0.00,meteohub,2013-06-18 05:20:00,
2013-06-18 00:23:00,79.0,68.4,-100.00,SE,135,0.0,0.0,70,0.00,,,0.00,meteohub,2013-06-18 05:23:00,
2013-06-18 00:27:00,79.0,68.7,-100.00,SE,135,0.0,0.0,71,0.00,,,0.00,meteohub,2013-06-18 05:27:00,
2013-06-18 00:29:00,79.0,68.7,-100.00,SE,135,0.0,0.0,71,0.00,,,0.00,meteohub,2013-06-18 05:29:00,
2013-06-18 00:31:00,79.0,68.7,-100.00,SSE,158,0.0,0.0,71,0.00,,,0.00,meteohub,2013-06-18 05:31:00,
2013-06-18 00:32:00,79.0,68.7,-100.00,SSE,158,0.0,0.0,71,0.00,,,0.00,meteohub,2013-06-18 05:32:00,
2013-06-18 00:35:00,79.0,68.7,-100.00,SE,135,0.0,0.0,71,0.00,,,0.00,meteohub,2013-06-18 05:35:00,
2013-06-18 00:37:00,79.0,68.7,-100.00,SE,135,0.0,0.0,71,0.00,,,0.00,meteohub,2013-06-18 05:37:00,
2013-06-18 00:39:00,79.0,68.7,-100.00,SSW,203,0.0,0.0,71,0.00,,,0.00,meteohub,2013-06-18 05:39:00,
2013-06-18 00:43:00,79.2,68.9,-100.00,SSW,203,0.0,0.0,71,0.00,,,0.00,meteohub,2013-06-18 05:43:00,
2013-06-18 00:45:00,79.2,68.9,-100.00,SSW,203,0.0,0.0,71,0.00,,,0.00,meteohub,2013-06-18 05:45:00,
2013-06-18 00:47:00,79.2,68.9,-100.00,SSW,203,0.0,0.0,71,0.00,,,0.00,meteohub,2013-06-18 05:47:00,
2013-06-18 00:53:00,79.2,69.8,-100.00,SSE,158,0.0,0.0,73,0.00,,,0.00,meteohub,2013-06-18 05:53:00,
2013-06-18 00:55:00,79.2,69.8,-100.00,SSE,158,0.0,0.0,73,0.00,,,0.00,meteohub,2013-06-18 05:55:00,
2013-06-18 00:57:00,79.0,69.6,-100.00,SSW,203,0.0,0.0,73,0.00,,,0.00,meteohub,2013-06-18 05:57:00,
2013-06-18 01:01:00,79.2,69.8,-100.00,South,180,3.0,0.0,73,0.00,,,0.00,meteohub,2013-06-18 06:01:00,
2013-06-18 01:02:00,79.2,69.8,-100.00,South,180,3.0,0.0,73,0.00,,,0.00,meteohub,2013-06-18 06:02:00,
2013-06-18 01:07:00,79.2,70.2,-100.00,South,180,1.0,3.0,74,0.00,,,0.00,meteohub,2013-06-18 06:07:00,
2013-06-18 01:09:00,79.0,70.0,-100.00,East,90,2.0,3.0,74,0.00,,,0.00,meteohub,2013-06-18 06:09:00,
2013-06-18 01:11:00,79.0,70.0,-100.00,ENE,68,0.0,3.0,74,0.00,,,0.00,meteohub,2013-06-18 06:11:00,
2013-06-18 01:13:00,79.0,70.0,-100.00,ENE,68,0.0,3.0,74,0.00,,,0.00,meteohub,2013-06-18 06:13:00,
2013-06-18 01:15:00,79.2,70.2,-100.00,SSW,203,0.0,3.0,74,0.00,,,0.00,meteohub,2013-06-18 06:15:00,
2013-06-18 01:17:00,79.0,70.3,-100.00,SSW,203,0.0,3.0,75,0.00,,,0.00,meteohub,2013-06-18 06:17:00,
2013-06-18 01:19:00,79.2,70.5,-100.00,ENE,68,0.0,3.0,75,0.00,,,0.00,meteohub,2013-06-18 06:19:00,
2013-06-18 01:21:00,79.0,70.3,-100.00,SE,135,0.0,2.0,75,0.00,,,0.00,meteohub,2013-06-18 06:21:00,
2013-06-18 01:25:00,79.0,70.3,-100.00,East,90,0.0,2.0,75,0.00,,,0.00,meteohub,2013-06-18 06:25:00,
2013-06-18 01:27:00,79.0,70.3,-100.00,West,270,0.0,2.0,75,0.00,,,0.00,meteohub,2013-06-18 06:27:00,
2013-06-18 01:33:00,79.0,70.7,-100.00,South,180,0.0,0.0,76,0.00,,,0.00,meteohub,2013-06-18 06:33:00,
2013-06-18 01:35:00,79.0,70.7,-100.00,SW,225,3.0,3.0,76,0.00,,,0.00,meteohub,2013-06-18 06:35:00,
2013-06-18 01:37:00,79.0,70.7,-100.00,SSW,203,0.0,2.0,76,0.00,,,0.00,meteohub,2013-06-18 06:37:00,
2013-06-18 01:41:00,79.0,70.7,-100.00,SE,135,0.0,3.0,76,0.00,,,0.00,meteohub,2013-06-18 06:41:00,
2013-06-18 01:43:00,79.0,70.7,-100.00,SE,135,0.0,3.0,76,0.00,,,0.00,meteohub,2013-06-18 06:43:00,
2013-06-18 01:47:00,79.0,70.7,-100.00,SSW,203,1.0,3.0,76,0.00,,,0.00,meteohub,2013-06-18 06:47:00,
2013-06-18 01:49:00,79.0,70.7,-100.00,South,180,0.0,3.0,76,0.00,,,0.00,meteohub,2013-06-18 06:49:00,
2013-06-18 01:53:00,78.6,70.3,-100.00,SSW,203,0.0,3.0,76,0.00,,,0.00,meteohub,2013-06-18 06:53:00,
2013-06-18 01:55:00,78.6,70.3,-100.00,SSW,203,0.0,1.0,76,0.00,,,0.00,meteohub,2013-06-18 06:55:00,
2013-06-18 01:57:00,78.6,70.3,-100.00,WNW,293,0.0,1.0,76,0.00,,,0.00,meteohub,2013-06-18 06:57:00,
2013-06-18 01:59:00,78.6,70.3,-100.00,SE,135,0.0,1.0,76,0.00,,,0.00,meteohub,2013-06-18 06:59:00,
2013-06-18 02:03:00,78.6,70.3,-100.00,SE,135,0.0,1.0,76,0.00,,,0.00,meteohub,2013-06-18 07:03:00,
2013-06-18 02:11:00,78.6,70.9,-100.00,SE,135,0.0,0.0,77,0.00,,,0.00,meteohub,2013-06-18 07:11:00,
2013-06-18 02:13:00,78.6,70.9,-100.00,SE,135,0.0,0.0,77,0.00,,,0.00,meteohub,2013-06-18 07:13:00,
2013-06-18 02:15:00,78.6,70.9,-100.00,SE,135,0.0,0.0,77,0.00,,,0.00,meteohub,2013-06-18 07:15:00,
2013-06-18 02:17:00,78.6,70.9,-100.00,SE,135,0.0,0.0,77,0.00,,,0.00,meteohub,2013-06-18 07:17:00,
2013-06-18 02:19:00,78.4,70.7,-100.00,South,180,0.0,0.0,77,0.00,,,0.00,meteohub,2013-06-18 07:19:00,
2013-06-18 02:23:00,78.4,70.7,-100.00,ENE,68,0.0,0.0,77,0.00,,,0.00,meteohub,2013-06-18 07:23:00,
2013-06-18 02:25:00,78.4,70.7,-100.00,ENE,68,0.0,0.0,77,0.00,,,0.00,meteohub,2013-06-18 07:25:00,
2013-06-18 02:29:00,78.4,70.7,-100.00,ENE,68,0.0,0.0,77,0.00,,,0.00,meteohub,2013-06-18 07:29:00,
2013-06-18 02:31:00,78.4,70.7,-100.00,ENE,68,0.0,0.0,77,0.00,,,0.00,meteohub,2013-06-18 07:31:00,
2013-06-18 02:32:00,78.4,70.7,-100.00,ENE,68,0.0,0.0,77,0.00,,,0.00,meteohub,2013-06-18 07:32:00,
2013-06-18 02:37:00,78.4,70.7,-100.00,NE,45,0.0,0.0,77,0.00,,,0.00,meteohub,2013-06-18 07:37:00,
2013-06-18 02:39:00,78.1,70.3,-100.00,NE,45,0.0,0.0,77,0.00,,,0.00,meteohub,2013-06-18 07:39:00,
2013-06-18 02:41:00,78.1,70.3,-100.00,East,90,0.0,0.0,77,0.00,,,0.00,meteohub,2013-06-18 07:41:00,
2013-06-18 02:43:00,78.1,70.3,-100.00,East,90,0.0,0.0,77,0.00,,,0.00,meteohub,2013-06-18 07:43:00,
2013-06-18 02:47:00,78.1,70.3,-100.00,East,90,0.0,0.0,77,0.00,,,0.00,meteohub,2013-06-18 07:47:00,
2013-06-18 02:49:00,78.1,70.3,-100.00,East,90,0.0,0.0,77,0.00,,,0.00,meteohub,2013-06-18 07:49:00,
2013-06-18 02:53:00,78.1,70.3,-100.00,ENE,68,0.0,0.0,77,0.00,,,0.00,meteohub,2013-06-18 07:53:00,
2013-06-18 02:55:00,78.1,70.3,-100.00,ENE,68,0.0,0.0,77,0.00,,,0.00,meteohub,2013-06-18 07:55:00,
2013-06-18 02:57:00,78.1,70.3,-100.00,East,90,0.0,0.0,77,0.00,,,0.00,meteohub,2013-06-18 07:57:00,
2013-06-18 02:59:00,78.1,70.3,-100.00,ENE,68,0.0,0.0,77,0.00,,,0.00,meteohub,2013-06-18 07:59:00,
2013-06-18 03:02:00,78.1,70.3,-100.00,ENE,68,0.0,0.0,77,0.00,,,0.00,meteohub,2013-06-18 08:02:00,
2013-06-18 03:03:00,78.1,70.3,-100.00,ENE,68,0.0,0.0,77,0.00,,,0.00,meteohub,2013-06-18 08:03:00,
2013-06-18 03:07:00,77.9,70.5,-100.00,SSW,203,0.0,0.0,78,0.00,,,0.00,meteohub,2013-06-18 08:07:00,
2013-06-18 03:09:00,77.9,70.2,-100.00,SSW,203,0.0,0.0,77,0.00,,,0.00,meteohub,2013-06-18 08:09:00,
2013-06-18 03:13:00,77.9,70.5,-100.00,SSW,203,0.0,0.0,78,0.00,,,0.00,meteohub,2013-06-18 08:13:00,
2013-06-18 03:15:00,77.7,70.3,-100.00,SSW,203,0.0,0.0,78,0.00,,,0.00,meteohub,2013-06-18 08:15:00,
2013-06-18 03:17:00,77.7,70.3,-100.00,SSW,203,0.0,0.0,78,0.00,,,0.00,meteohub,2013-06-18 08:17:00,
2013-06-18 03:22:00,77.7,70.3,-100.00,SSW,203,0.0,0.0,78,0.00,,,0.00,meteohub,2013-06-18 08:22:00,
2013-06-18 03:24:00,77.7,70.3,-100.00,ESE,113,0.0,0.0,78,0.00,,,0.00,meteohub,2013-06-18 08:24:00,
2013-06-18 03:26:00,77.7,70.3,-100.00,South,180,0.0,0.0,78,0.00,,,0.00,meteohub,2013-06-18 08:26:00,
2013-06-18 03:30:00,77.7,70.3,-100.00,SE,135,1.0,0.0,78,0.00,,,0.00,meteohub,2013-06-18 08:30:00,
2013-06-18 03:32:00,77.5,70.2,-100.00,SSW,203,2.0,0.0,78,0.00,,,0.00,meteohub,2013-06-18 08:32:00,
2013-06-18 03:34:00,77.5,70.2,-100.00,ESE,113,0.0,0.0,78,0.00,,,0.00,meteohub,2013-06-18 08:34:00,
2013-06-18 03:40:00,77.5,70.2,-100.00,SSW,203,0.0,2.0,78,0.00,,,0.00,meteohub,2013-06-18 08:40:00,
2013-06-18 03:42:00,77.5,70.2,-100.00,SSE,158,1.0,2.0,78,0.00,,,0.00,meteohub,2013-06-18 08:42:00,
2013-06-18 03:44:00,77.5,70.2,-100.00,ESE,113,0.0,2.0,78,0.00,,,0.00,meteohub,2013-06-18 08:44:00,
2013-06-18 03:48:00,77.5,70.2,-100.00,SSW,203,0.0,2.0,78,0.00,,,0.00,meteohub,2013-06-18 08:48:00,
2013-06-18 03:50:00,77.5,70.2,-100.00,SSW,203,0.0,2.0,78,0.00,,,0.00,meteohub,2013-06-18 08:50:00,
2013-06-18 03:52:00,77.5,70.2,-100.00,SSW,203,0.0,1.0,78,0.00,,,0.00,meteohub,2013-06-18 08:52:00,
2013-06-18 03:54:00,77.5,69.8,-100.00,SW,225,0.0,1.0,77,0.00,,,0.00,meteohub,2013-06-18 08:54:00,
2013-06-18 03:56:00,77.5,69.8,-100.00,SSW,203,2.0,2.0,77,0.00,,,0.00,meteohub,2013-06-18 08:56:00,
2013-06-18 03:58:00,77.5,69.8,-100.00,SSW,203,2.0,2.0,77,0.00,,,0.00,meteohub,2013-06-18 08:58:00,
2013-06-18 04:00:00,77.5,70.2,-100.00,ESE,113,0.0,1.0,78,0.00,,,0.00,meteohub,2013-06-18 09:00:00,
2013-06-18 04:02:00,77.5,70.2,-100.00,SE,135,0.0,2.0,78,0.00,,,0.00,meteohub,2013-06-18 09:02:00,
2013-06-18 04:06:00,77.4,69.6,-100.00,SSW,203,0.0,2.0,77,0.00,,,0.00,meteohub,2013-06-18 09:06:00,
2013-06-18 04:10:00,77.4,70.0,-100.00,SSW,203,0.0,2.0,78,0.00,,,0.00,meteohub,2013-06-18 09:10:00,
2013-06-18 04:12:00,77.4,70.0,-100.00,South,180,0.0,2.0,78,0.00,,,0.00,meteohub,2013-06-18 09:12:00,
2013-06-18 04:18:00,77.2,69.8,-100.00,WNW,293,0.0,0.0,78,0.00,,,0.00,meteohub,2013-06-18 09:18:00,
2013-06-18 04:20:00,77.2,69.8,-100.00,West,270,0.0,0.0,78,0.00,,,0.00,meteohub,2013-06-18 09:20:00,
2013-06-18 04:24:00,77.2,69.8,-100.00,WNW,293,1.0,0.0,78,0.00,,,0.00,meteohub,2013-06-18 09:24:00,
2013-06-18 04:26:00,77.2,69.8,-100.00,NW,315,1.0,1.0,78,0.00,,,0.00,meteohub,2013-06-18 09:26:00,
2013-06-18 04:28:00,77.2,69.8,-100.00,NW,315,1.0,1.0,78,0.00,,,0.00,meteohub,2013-06-18 09:28:00,
2013-06-18 04:32:00,77.2,68.7,-100.00,WNW,293,0.0,1.0,75,0.00,,,0.00,meteohub,2013-06-18 09:32:00,
2013-06-18 04:34:00,77.2,68.7,-100.00,WNW,293,2.0,2.0,75,0.00,,,0.00,meteohub,2013-06-18 09:34:00,
2013-06-18 04:38:00,76.8,66.7,-100.00,NE,45,0.0,2.0,71,0.00,,,0.00,meteohub,2013-06-18 09:38:00,
2013-06-18 04:40:00,76.8,66.2,-100.00,NNE,23,3.0,3.0,70,0.00,,,0.00,meteohub,2013-06-18 09:40:00,
2013-06-18 04:44:00,76.6,66.2,-100.00,NE,45,0.0,2.0,70,0.00,,,0.00,meteohub,2013-06-18 09:44:00,
2013-06-18 04:46:00,76.5,66.0,-100.00,WNW,293,0.0,3.0,70,0.00,,,0.00,meteohub,2013-06-18 09:46:00,
2013-06-18 04:48:00,76.1,66.4,-100.00,WNW,293,0.0,3.0,72,0.00,,,0.00,meteohub,2013-06-18 09:48:00,
2013-06-18 04:50:00,75.9,66.2,-100.00,NE,45,0.0,3.0,72,0.00,,,0.00,meteohub,2013-06-18 09:50:00,
2013-06-18 04:54:00,75.6,66.4,-100.00,NE,45,0.0,3.0,73,0.00,,,0.00,meteohub,2013-06-18 09:54:00,
2013-06-18 04:58:00,75.0,66.6,-100.00,North,0,0.0,3.0,75,0.00,,,0.00,meteohub,2013-06-18 09:58:00,
2013-06-18 05:00:00,75.0,66.6,-100.00,NNE,23,0.0,0.0,75,0.04,,,0.04,meteohub,2013-06-18 10:00:00,
2013-06-18 05:02:00,75.0,66.6,-100.00,NNE,23,0.0,0.0,75,0.04,,,0.04,meteohub,2013-06-18 10:02:00,
2013-06-18 05:04:00,74.7,66.2,-100.00,NNE,23,0.0,0.0,75,0.04,,,0.04,meteohub,2013-06-18 10:04:00,
2013-06-18 05:06:00,74.5,66.4,-100.00,NNE,23,0.0,0.0,76,0.04,,,0.04,meteohub,2013-06-18 10:06:00,
2013-06-18 05:08:00,74.1,66.0,-100.00,NNE,23,0.0,0.0,76,0.04,,,0.04,meteohub,2013-06-18 10:08:00,
2013-06-18 05:10:00,73.9,66.2,-100.00,NNE,23,0.0,0.0,77,0.08,,,0.08,meteohub,2013-06-18 10:10:00,
2013-06-18 05:12:00,73.6,65.8,-100.00,NNE,23,0.0,0.0,77,0.08,,,0.08,meteohub,2013-06-18 10:12:00,
2013-06-18 05:14:00,73.2,66.0,-100.00,NE,45,0.0,0.0,78,0.08,,,0.08,meteohub,2013-06-18 10:14:00,
2013-06-18 05:16:00,73.2,66.4,-100.00,NE,45,0.0,0.0,79,0.08,,,0.08,meteohub,2013-06-18 10:16:00,
2013-06-18 05:20:00,72.7,65.8,-100.00,NNE,23,1.0,0.0,79,0.10,,,0.10,meteohub,2013-06-18 10:20:00,
2013-06-18 05:22:00,72.7,66.2,-100.00,NNE,23,0.0,0.0,80,0.10,,,0.10,meteohub,2013-06-18 10:22:00,
2013-06-18 05:26:00,72.3,65.8,-100.00,NNE,23,0.0,1.0,80,0.10,,,0.10,meteohub,2013-06-18 10:26:00,
2013-06-18 05:28:00,72.1,66.0,-100.00,NNE,23,0.0,1.0,81,0.10,,,0.10,meteohub,2013-06-18 10:28:00,
2013-06-18 05:30:00,72.1,66.0,-100.00,East,90,0.0,1.0,81,0.10,,,0.10,meteohub,2013-06-18 10:30:00,
2013-06-18 05:34:00,72.0,65.8,-100.00,East,90,0.0,1.0,81,0.10,,,0.10,meteohub,2013-06-18 10:34:00,
2013-06-18 05:36:00,72.0,65.8,-100.00,East,90,0.0,1.0,81,0.12,,,0.12,meteohub,2013-06-18 10:36:00,
2013-06-18 05:40:00,71.8,65.7,-100.00,East,90,0.0,0.0,81,0.12,,,0.12,meteohub,2013-06-18 10:40:00,
2013-06-18 05:44:00,71.4,65.7,-100.00,SSW,203,0.0,0.0,82,0.12,,,0.12,meteohub,2013-06-18 10:44:00,
2013-06-18 05:46:00,71.4,66.0,-100.00,SSW,203,0.0,0.0,83,0.12,,,0.12,meteohub,2013-06-18 10:46:00,
2013-06-18 05:47:00,71.4,66.0,-100.00,SSW,203,0.0,0.0,83,0.12,,,0.12,meteohub,2013-06-18 10:47:00,
2013-06-18 05:48:00,71.4,66.0,-100.00,SSW,203,0.0,0.0,83,0.12,,,0.12,meteohub,2013-06-18 10:48:00,
2013-06-18 05:50:00,71.4,66.0,-100.00,SSW,203,0.0,0.0,83,0.12,,,0.12,meteohub,2013-06-18 10:50:00,
2013-06-18 05:52:00,71.2,65.8,-100.00,South,180,0.0,0.0,83,0.12,,,0.12,meteohub,2013-06-18 10:52:00,
2013-06-18 05:54:00,71.2,65.8,-100.00,South,180,0.0,0.0,83,0.12,,,0.12,meteohub,2013-06-18 10:54:00,
2013-06-18 05:56:00,71.2,66.2,-100.00,South,180,0.0,0.0,84,0.12,,,0.12,meteohub,2013-06-18 10:56:00,
2013-06-18 05:58:00,71.1,66.0,-100.00,South,180,0.0,0.0,84,0.12,,,0.12,meteohub,2013-06-18 10:58:00,
2013-06-18 06:02:00,70.9,66.2,-100.00,ESE,113,0.0,0.0,85,0.08,,,0.12,meteohub,2013-06-18 11:02:00,
2013-06-18 06:06:00,70.7,66.0,-100.00,SSW,203,0.0,2.0,85,0.08,,,0.14,meteohub,2013-06-18 11:06:00,
2013-06-18 06:12:00,70.7,66.4,-100.00,SW,225,2.0,2.0,86,0.08,,,0.17,meteohub,2013-06-18 11:12:00,
2013-06-18 06:14:00,70.3,66.0,-100.00,NNE,23,1.0,2.0,86,0.08,,,0.17,meteohub,2013-06-18 11:14:00,
2013-06-18 06:16:00,70.3,66.0,-100.00,ESE,113,1.0,2.0,86,0.06,,,0.17,meteohub,2013-06-18 11:16:00,
2013-06-18 06:19:00,70.3,66.0,-100.00,SE,135,3.0,3.0,86,0.06,,,0.17,meteohub,2013-06-18 11:19:00,
2013-06-18 06:21:00,70.2,65.8,-100.00,East,90,3.0,3.0,86,0.08,,,0.19,meteohub,2013-06-18 11:21:00,
2013-06-18 06:23:00,70.2,65.8,-100.00,ESE,113,2.0,3.0,86,0.08,,,0.19,meteohub,2013-06-18 11:23:00,
2013-06-18 06:25:00,70.2,65.8,-100.00,East,90,0.0,3.0,86,0.08,,,0.19,meteohub,2013-06-18 11:25:00,
2013-06-18 06:27:00,70.0,65.7,-100.00,SSE,158,0.0,3.0,86,0.08,,,0.19,meteohub,2013-06-18 11:27:00,
2013-06-18 06:29:00,70.0,66.0,-100.00,NE,45,2.0,3.0,87,0.08,,,0.19,meteohub,2013-06-18 11:29:00,
2013-06-18 06:31:00,70.0,66.0,-100.00,SE,135,1.0,3.0,87,0.08,,,0.19,meteohub,2013-06-18 11:31:00,
2013-06-18 06:33:00,69.8,65.8,-100.00,East,90,1.0,3.0,87,0.08,,,0.19,meteohub,2013-06-18 11:33:00,
2013-06-18 06:35:00,69.6,65.8,-100.00,SW,225,2.0,3.0,88,0.08,,,0.19,meteohub,2013-06-18 11:35:00,
2013-06-18 06:37:00,69.6,65.8,-100.00,East,90,0.0,3.0,88,0.06,,,0.19,meteohub,2013-06-18 11:37:00,
2013-06-18 06:39:00,69.6,65.8,-100.00,ESE,113,2.0,3.0,88,0.06,,,0.19,meteohub,2013-06-18 11:39:00,
2013-06-18 06:43:00,69.6,65.8,-100.00,East,90,0.0,2.0,88,0.06,,,0.19,meteohub,2013-06-18 11:43:00,
2013-06-18 06:45:00,69.6,65.8,-100.00,East,90,0.0,2.0,88,0.06,,,0.19,meteohub,2013-06-18 11:45:00,
2013-06-18 06:49:00,69.6,65.8,-100.00,SW,225,1.0,2.0,88,0.06,,,0.19,meteohub,2013-06-18 11:49:00,
2013-06-18 06:55:00,69.6,65.8,-100.00,NE,45,3.0,3.0,88,0.06,,,0.22,meteohub,2013-06-18 11:55:00,
2013-06-18 06:57:00,69.6,65.8,-100.00,ESE,113,4.0,4.0,88,0.10,,,0.22,meteohub,2013-06-18 11:57:00,
2013-06-18 07:01:00,69.6,65.8,-100.00,East,90,1.0,4.0,88,0.08,,,0.22,meteohub,2013-06-18 12:01:00,
2013-06-18 07:02:00,69.6,65.8,-100.00,East,90,1.0,4.0,88,0.08,,,0.22,meteohub,2013-06-18 12:02:00,
2013-06-18 07:03:00,69.6,65.8,-100.00,WNW,293,0.0,4.0,88,0.08,,,0.22,meteohub,2013-06-18 12:03:00,
2013-06-18 07:07:00,69.6,65.8,-100.00,NW,315,2.0,4.0,88,0.10,,,0.24,meteohub,2013-06-18 12:07:00,
2013-06-18 07:09:00,69.6,65.8,-100.00,NW,315,2.0,4.0,88,0.10,,,0.24,meteohub,2013-06-18 12:09:00,
2013-06-18 07:11:00,69.6,65.8,-100.00,West,270,0.0,4.0,88,0.08,,,0.24,meteohub,2013-06-18 12:11:00,
2013-06-18 07:13:00,69.6,65.8,-100.00,SSE,158,1.0,4.0,88,0.08,,,0.24,meteohub,2013-06-18 12:13:00,
2013-06-18 07:15:00,69.6,65.8,-100.00,West,270,0.0,2.0,88,0.06,,,0.24,meteohub,2013-06-18 12:15:00,
2013-06-18 07:17:00,69.6,65.8,-100.00,West,270,0.0,2.0,88,0.06,,,0.24,meteohub,2013-06-18 12:17:00,
2013-06-18 07:23:00,69.6,65.8,-100.00,WNW,293,0.0,2.0,88,0.06,,,0.24,meteohub,2013-06-18 12:23:00,
2013-06-18 07:27:00,69.8,66.0,-100.00,WNW,293,0.0,1.0,88,0.06,,,0.24,meteohub,2013-06-18 12:27:00,
2013-06-18 07:29:00,70.0,66.2,-100.00,NNE,23,0.0,1.0,88,0.06,,,0.24,meteohub,2013-06-18 12:29:00,
2013-06-18 07:32:00,69.8,66.0,-100.00,NNE,23,0.0,0.0,88,0.06,,,0.24,meteohub,2013-06-18 12:32:00,
2013-06-18 07:33:00,70.0,66.2,-100.00,SE,135,0.0,0.0,88,0.06,,,0.24,meteohub,2013-06-18 12:33:00,
2013-06-18 07:37:00,70.2,66.4,-100.00,SE,135,0.0,0.0,88,0.06,,,0.24,meteohub,2013-06-18 12:37:00,
2013-06-18 07:39:00,70.0,66.2,-100.00,East,90,0.0,0.0,88,0.06,,,0.24,meteohub,2013-06-18 12:39:00,
2013-06-18 07:41:00,70.2,66.4,-100.00,East,90,0.0,0.0,88,0.06,,,0.24,meteohub,2013-06-18 12:41:00,
2013-06-18 07:43:00,70.2,66.4,-100.00,East,90,0.0,0.0,88,0.06,,,0.24,meteohub,2013-06-18 12:43:00,
2013-06-18 07:47:00,70.3,66.6,-100.00,East,90,0.0,0.0,88,0.06,,,0.24,meteohub,2013-06-18 12:47:00,
2013-06-18 07:49:00,70.3,66.6,-100.00,East,90,0.0,0.0,88,0.06,,,0.24,meteohub,2013-06-18 12:49:00,
2013-06-18 07:53:00,70.3,66.6,-100.00,East,90,0.0,0.0,88,0.04,,,0.24,meteohub,2013-06-18 12:53:00,
2013-06-18 07:55:00,70.3,66.6,-100.00,ENE,68,0.0,0.0,88,0.02,,,0.24,meteohub,2013-06-18 12:55:00,
2013-06-18 07:59:00,70.3,66.6,-100.00,ENE,68,0.0,0.0,88,0.02,,,0.24,meteohub,2013-06-18 12:59:00,
2013-06-18 08:01:00,70.5,66.7,-100.00,ENE,68,0.0,0.0,88,0.00,,,0.24,meteohub,2013-06-18 13:01:00,
2013-06-18 08:02:00,70.5,66.7,-100.00,ENE,68,0.0,0.0,88,0.00,,,0.24,meteohub,2013-06-18 13:02:00,
2013-06-18 08:05:00,70.5,66.7,-100.00,NE,45,0.0,0.0,88,0.00,,,0.24,meteohub,2013-06-18 13:05:00,
2013-06-18 08:07:00,70.5,66.7,-100.00,NE,45,0.0,0.0,88,0.00,,,0.24,meteohub,2013-06-18 13:07:00,
2013-06-18 08:09:00,70.7,66.9,-100.00,NE,45,0.0,0.0,88,0.00,,,0.24,meteohub,2013-06-18 13:09:00,
2013-06-18 08:11:00,70.9,67.1,-100.00,NNE,23,0.0,0.0,88,0.00,,,0.24,meteohub,2013-06-18 13:11:00,
2013-06-18 08:15:00,70.9,67.1,-100.00,NNE,23,0.0,0.0,88,0.00,,,0.24,meteohub,2013-06-18 13:15:00,
2013-06-18 08:17:00,70.9,67.1,-100.00,NNE,23,0.0,0.0,88,0.00,,,0.24,meteohub,2013-06-18 13:17:00,
2013-06-18 08:23:00,71.2,67.5,-100.00,NE,45,0.0,0.0,88,0.00,,,0.24,meteohub,2013-06-18 13:23:00,
2013-06-18 08:25:00,71.2,67.5,-100.00,NE,45,0.0,0.0,88,0.00,,,0.24,meteohub,2013-06-18 13:25:00,
2013-06-18 08:29:00,71.4,67.6,-100.00,NE,45,0.0,0.0,88,0.00,,,0.24,meteohub,2013-06-18 13:29:00,
2013-06-18 08:31:00,71.4,67.6,-100.00,ENE,68,0.0,0.0,88,0.00,,,0.24,meteohub,2013-06-18 13:31:00,
2013-06-18 08:32:00,71.4,67.6,-100.00,ENE,68,0.0,0.0,88,0.00,,,0.24,meteohub,2013-06-18 13:32:00,
2013-06-18 08:33:00,71.4,67.6,-100.00,ENE,68,0.0,0.0,88,0.00,,,0.24,meteohub,2013-06-18 13:33:00,
2013-06-18 08:35:00,71.4,67.6,-100.00,ENE,68,0.0,0.0,88,0.00,,,0.24,meteohub,2013-06-18 13:35:00,
2013-06-18 08:37:00,71.4,67.6,-100.00,ENE,68,0.0,0.0,88,0.00,,,0.24,meteohub,2013-06-18 13:37:00,
2013-06-18 08:39:00,71.8,68.0,-100.00,West,270,0.0,0.0,88,0.00,,,0.24,meteohub,2013-06-18 13:39:00,
2013-06-18 08:41:00,72.0,68.2,-100.00,North,0,0.0,0.0,88,0.00,,,0.24,meteohub,2013-06-18 13:41:00,
2013-06-18 08:43:00,72.0,68.2,-100.00,NNE,23,0.0,0.0,88,0.00,,,0.24,meteohub,2013-06-18 13:43:00,
2013-06-18 08:45:00,72.1,68.4,-100.00,NNE,23,0.0,0.0,88,0.00,,,0.24,meteohub,2013-06-18 13:45:00,
2013-06-18 08:47:00,72.1,68.4,-100.00,NNE,23,0.0,0.0,88,0.00,,,0.24,meteohub,2013-06-18 13:47:00,
2013-06-18 08:51:00,72.7,68.9,-100.00,NNE,23,0.0,0.0,88,0.00,,,0.24,meteohub,2013-06-18 13:51:00,
2013-06-18 08:55:00,72.7,68.5,-100.00,NNE,23,0.0,0.0,87,0.00,,,0.24,meteohub,2013-06-18 13:55:00,
2013-06-18 08:57:00,72.7,68.5,-100.00,NNE,23,0.0,0.0,87,0.00,,,0.24,meteohub,2013-06-18 13:57:00,
2013-06-18 08:59:00,73.0,68.9,-100.00,NE,45,0.0,0.0,87,0.00,,,0.24,meteohub,2013-06-18 13:59:00,
2013-06-18 09:02:00,73.0,68.5,-100.00,NE,45,0.0,0.0,86,0.00,,,0.24,meteohub,2013-06-18 14:02:00,
2013-06-18 09:03:00,73.2,68.7,-100.00,NE,45,0.0,0.0,86,0.00,,,0.24,meteohub,2013-06-18 14:03:00,
2013-06-18 09:07:00,73.2,68.4,-100.00,NE,45,0.0,0.0,85,0.00,,,0.24,meteohub,2013-06-18 14:07:00,
2013-06-18 09:13:00,73.6,68.7,-100.00,East,90,0.0,0.0,85,0.00,,,0.24,meteohub,2013-06-18 14:13:00,
2013-06-18 09:15:00,73.8,68.9,-100.00,ESE,113,0.0,0.0,85,0.00,,,0.24,meteohub,2013-06-18 14:15:00,
2013-06-18 09:17:00,73.8,68.9,-100.00,ESE,113,0.0,0.0,85,0.00,,,0.24,meteohub,2013-06-18 14:17:00,
2013-06-18 09:20:00,73.8,68.5,-100.00,SSW,203,0.0,0.0,84,0.00,,,0.24,meteohub,2013-06-18 14:20:00,
2013-06-18 09:22:00,73.9,68.7,-100.00,SW,225,1.0,0.0,84,0.00,,,0.24,meteohub,2013-06-18 14:22:00,
2013-06-18 09:24:00,73.9,68.7,-100.00,SSE,158,0.0,0.0,84,0.00,,,0.24,meteohub,2013-06-18 14:24:00,
2013-06-18 09:28:00,73.9,68.4,-100.00,ESE,113,2.0,2.0,83,0.00,,,0.24,meteohub,2013-06-18 14:28:00,
2013-06-18 09:30:00,73.9,68.4,-100.00,ESE,113,2.0,2.0,83,0.00,,,0.24,meteohub,2013-06-18 14:30:00,
2013-06-18 09:36:00,73.9,68.4,-100.00,ESE,113,1.0,2.0,83,0.00,,,0.24,meteohub,2013-06-18 14:36:00,
2013-06-18 09:38:00,73.9,68.4,-100.00,NE,45,0.0,2.0,83,0.00,,,0.24,meteohub,2013-06-18 14:38:00,
2013-06-18 09:42:00,74.1,68.5,-100.00,SSE,158,0.0,2.0,83,0.00,,,0.24,meteohub,2013-06-18 14:42:00,
2013-06-18 09:44:00,74.1,68.5,-100.00,ENE,68,2.0,2.0,83,0.00,,,0.24,meteohub,2013-06-18 14:44:00,
2013-06-18 09:46:00,74.1,68.5,-100.00,ENE,68,0.0,2.0,83,0.00,,,0.24,meteohub,2013-06-18 14:46:00,
2013-06-18 09:50:00,74.3,68.7,-100.00,East,90,2.0,2.0,83,0.00,,,0.24,meteohub,2013-06-18 14:50:00,
2013-06-18 09:52:00,74.3,68.7,-100.00,East,90,2.0,2.0,83,0.00,,,0.24,meteohub,2013-06-18 14:52:00,
2013-06-18 09:54:00,74.5,68.9,-100.00,South,180,0.0,2.0,83,0.00,,,0.24,meteohub,2013-06-18 14:54:00,
2013-06-18 09:56:00,74.5,68.9,-100.00,South,180,0.0,2.0,83,0.00,,,0.24,meteohub,2013-06-18 14:56:00,
2013-06-18 09:58:00,74.5,68.5,-100.00,ENE,68,2.0,2.0,82,0.00,,,0.24,meteohub,2013-06-18 14:58:00,
2013-06-18 10:00:00,74.5,68.5,-100.00,ENE,68,2.0,2.0,82,0.00,,,0.24,meteohub,2013-06-18 15:00:00,
2013-06-18 10:02:00,74.5,68.5,-100.00,East,90,2.0,2.0,82,0.00,,,0.24,meteohub,2013-06-18 15:02:00,
2013-06-18 10:06:00,74.5,68.5,-100.00,NE,45,0.0,2.0,82,0.00,,,0.24,meteohub,2013-06-18 15:06:00,
2013-06-18 10:08:00,74.7,68.7,-100.00,NNW,338,0.0,2.0,82,0.00,,,0.24,meteohub,2013-06-18 15:08:00,
2013-06-18 10:10:00,74.8,68.9,-100.00,SSE,158,0.0,2.0,82,0.00,,,0.24,meteohub,2013-06-18 15:10:00,
2013-06-18 10:16:00,74.8,68.5,-100.00,ENE,68,0.0,2.0,81,0.00,,,0.24,meteohub,2013-06-18 15:16:00,
2013-06-18 10:18:00,75.0,68.7,-100.00,SSW,203,0.0,2.0,81,0.00,,,0.24,meteohub,2013-06-18 15:18:00,
2013-06-18 10:20:00,75.0,68.7,-100.00,East,90,1.0,2.0,81,0.00,,,0.24,meteohub,2013-06-18 15:20:00,
2013-06-18 10:24:00,75.4,69.1,-100.00,NW,315,0.0,2.0,81,0.00,,,0.24,meteohub,2013-06-18 15:24:00,
2013-06-18 10:26:00,75.6,69.3,-100.00,SSW,203,1.0,2.0,81,0.00,,,0.24,meteohub,2013-06-18 15:26:00,
2013-06-18 10:30:00,75.7,69.4,-100.00,South,180,0.0,1.0,81,0.00,,,0.24,meteohub,2013-06-18 15:30:00,
2013-06-18 10:32:00,75.7,69.4,-100.00,South,180,0.0,1.0,81,0.00,,,0.24,meteohub,2013-06-18 15:32:00,
2013-06-18 10:34:00,75.9,69.3,-100.00,SW,225,1.0,1.0,80,0.00,,,0.24,meteohub,2013-06-18 15:34:00,
2013-06-18 10:38:00,76.1,69.4,-100.00,North,0,0.0,1.0,80,0.00,,,0.24,meteohub,2013-06-18 15:38:00,
2013-06-18 10:40:00,76.3,69.6,-100.00,NNE,23,0.0,2.0,80,0.00,,,0.24,meteohub,2013-06-18 15:40:00,
2013-06-18 10:42:00,76.6,70.0,-100.00,NE,45,0.0,2.0,80,0.00,,,0.24,meteohub,2013-06-18 15:42:00,
2013-06-18 10:46:00,76.8,70.2,-100.00,NNE,23,2.0,2.0,80,0.00,,,0.24,meteohub,2013-06-18 15:46:00,
2013-06-18 10:47:00,76.8,70.2,-100.00,NNE,23,2.0,2.0,80,0.00,,,0.24,meteohub,2013-06-18 15:47:00,
2013-06-18 10:50:00,77.0,70.3,-100.00,NNE,23,2.0,2.0,80,0.00,,,0.24,meteohub,2013-06-18 15:50:00,
2013-06-18 10:56:00,77.5,70.2,-100.00,NNE,23,0.0,2.0,78,0.00,,,0.24,meteohub,2013-06-18 15:56:00,
2013-06-18 11:00:00,77.5,69.8,-100.00,SE,135,1.0,2.0,77,0.00,,,0.24,meteohub,2013-06-18 16:00:00,
2013-06-18 11:02:00,77.5,69.8,-100.00,SE,135,1.0,2.0,77,0.00,,,0.24,meteohub,2013-06-18 16:02:00,
2013-06-18 11:04:00,77.5,69.8,-100.00,East,90,1.0,2.0,77,0.00,,,0.24,meteohub,2013-06-18 16:04:00,
2013-06-18 11:06:00,77.7,70.0,-100.00,SW,225,3.0,3.0,77,0.00,,,0.24,meteohub,2013-06-18 16:06:00,
2013-06-18 11:08:00,77.7,70.0,-100.00,SW,225,3.0,3.0,77,0.00,,,0.24,meteohub,2013-06-18 16:08:00,
2013-06-18 11:12:00,78.1,70.0,-100.00,West,270,0.0,3.0,76,0.00,,,0.24,meteohub,2013-06-18 16:12:00,
2013-06-18 11:14:00,78.1,70.0,-100.00,West,270,0.0,3.0,76,0.00,,,0.24,meteohub,2013-06-18 16:14:00,
2013-06-18 11:16:00,78.1,69.4,-100.00,NE,45,0.0,3.0,75,0.00,,,0.24,meteohub,2013-06-18 16:16:00,
2013-06-18 11:17:00,78.1,69.4,-100.00,NE,45,0.0,3.0,75,0.00,,,0.24,meteohub,2013-06-18 16:17:00,
2013-06-18 11:18:00,78.4,69.8,-100.00,SSW,203,1.0,3.0,75,0.00,,,0.24,meteohub,2013-06-18 16:18:00,
2013-06-18 11:20:00,78.6,70.0,-100.00,East,90,0.0,3.0,75,0.00,,,0.24,meteohub,2013-06-18 16:20:00,
2013-06-18 11:22:00,78.6,70.0,-100.00,NW,315,0.0,3.0,75,0.00,,,0.24,meteohub,2013-06-18 16:22:00,
2013-06-18 11:24:00,78.6,70.0,-100.00,East,90,2.0,3.0,75,0.00,,,0.24,meteohub,2013-06-18 16:24:00,
2013-06-18 11:26:00,78.8,69.8,-100.00,East,90,0.0,2.0,74,0.00,,,0.24,meteohub,2013-06-18 16:26:00,
2013-06-18 11:30:00,79.0,70.0,-100.00,NE,45,2.0,2.0,74,0.00,,,0.24,meteohub,2013-06-18 16:30:00,
2013-06-18 11:32:00,79.0,70.0,-100.00,NE,45,2.0,2.0,74,0.00,,,0.24,meteohub,2013-06-18 16:32:00,
2013-06-18 11:36:00,79.2,70.2,-100.00,NE,45,1.0,2.0,74,0.00,,,0.24,meteohub,2013-06-18 16:36:00,
2013-06-18 11:38:00,79.2,70.2,-100.00,NE,45,1.0,2.0,74,0.00,,,0.24,meteohub,2013-06-18 16:38:00,
2013-06-18 11:42:00,79.5,70.2,-100.00,SSW,203,2.0,2.0,73,0.00,,,0.24,meteohub,2013-06-18 16:42:00,
2013-06-18 11:46:00,79.9,70.0,-100.00,South,180,0.0,2.0,72,0.00,,,0.24,meteohub,2013-06-18 16:46:00,
2013-06-18 11:47:00,79.9,70.0,-100.00,South,180,0.0,2.0,72,0.00,,,0.24,meteohub,2013-06-18 16:47:00,
2013-06-18 11:48:00,80.1,70.2,-100.00,South,180,0.0,2.0,72,0.00,,,0.24,meteohub,2013-06-18 16:48:00,
2013-06-18 11:52:00,80.4,70.5,-100.00,NE,45,1.0,2.0,72,0.00,,,0.24,meteohub,2013-06-18 16:52:00,
2013-06-18 11:54:00,80.4,70.5,-100.00,ENE,68,0.0,2.0,72,0.00,,,0.24,meteohub,2013-06-18 16:54:00,
2013-06-18 11:58:00,80.6,70.3,-100.00,WNW,293,2.0,2.0,71,0.00,,,0.24,meteohub,2013-06-18 16:58:00,
2013-06-18 12:00:00,81.0,70.7,-100.00,NE,45,2.0,2.0,71,0.00,,,0.24,meteohub,2013-06-18 17:00:00,
2013-06-18 12:02:00,81.0,70.7,-100.00,NE,45,2.0,2.0,71,0.00,,,0.24,meteohub,2013-06-18 17:02:00,
2013-06-18 12:04:00,81.1,70.9,-100.00,NE,45,1.0,2.0,71,0.00,,,0.24,meteohub,2013-06-18 17:04:00,
2013-06-18 12:08:00,81.5,71.2,-100.00,South,180,0.0,2.0,71,0.00,,,0.24,meteohub,2013-06-18 17:08:00,
2013-06-18 12:10:00,81.5,71.2,-100.00,NNE,23,2.0,2.0,71,0.00,,,0.24,meteohub,2013-06-18 17:10:00,
2013-06-18 12:12:00,81.7,70.5,-100.00,NNE,23,2.0,2.0,69,0.00,,,0.24,meteohub,2013-06-18 17:12:00,
2013-06-18 12:14:00,81.7,70.2,-100.00,SSW,203,2.0,2.0,68,0.00,,,0.24,meteohub,2013-06-18 17:14:00,
2013-06-18 12:16:00,81.9,70.3,-100.00,WNW,293,0.0,2.0,68,0.00,,,0.24,meteohub,2013-06-18 17:16:00,
2013-06-18 12:17:00,81.9,70.3,-100.00,WNW,293,0.0,2.0,68,0.00,,,0.24,meteohub,2013-06-18 17:17:00,
2013-06-18 12:19:00,82.0,70.3,-100.00,West,270,1.0,2.0,68,0.00,,,0.24,meteohub,2013-06-18 17:19:00,
2013-06-18 12:23:00,82.2,70.2,-100.00,NNE,23,0.0,2.0,67,0.00,,,0.24,meteohub,2013-06-18 17:23:00,
2013-06-18 12:25:00,82.2,70.2,-100.00,NNE,23,0.0,2.0,67,0.00,,,0.24,meteohub,2013-06-18 17:25:00,
2013-06-18 12:27:00,82.2,70.2,-100.00,NE,45,0.0,2.0,67,0.00,,,0.24,meteohub,2013-06-18 17:27:00,
2013-06-18 12:31:00,82.6,70.9,-100.00,SW,225,4.0,4.0,68,0.00,,,0.24,meteohub,2013-06-18 17:31:00,
2013-06-18 12:32:00,82.6,70.9,-100.00,SW,225,4.0,4.0,68,0.00,,,0.24,meteohub,2013-06-18 17:32:00,
2013-06-18 12:33:00,82.8,70.7,-100.00,SSW,203,1.0,1.0,67,0.00,,,0.24,meteohub,2013-06-18 17:33:00,
2013-06-18 12:39:00,83.1,70.5,-100.00,ESE,113,0.0,4.0,66,0.00,,,0.24,meteohub,2013-06-18 17:39:00,
2013-06-18 12:41:00,83.3,70.7,-100.00,NW,315,1.0,4.0,66,0.00,,,0.24,meteohub,2013-06-18 17:41:00,
2013-06-18 12:43:00,83.5,70.9,-100.00,SSE,158,2.0,4.0,66,0.00,,,0.24,meteohub,2013-06-18 17:43:00,
2013-06-18 12:47:00,84.0,71.1,-100.00,East,90,3.0,4.0,65,0.00,,,0.24,meteohub,2013-06-18 17:47:00,
2013-06-18 12:51:00,84.0,71.1,-100.00,ENE,68,0.0,3.0,65,0.00,,,0.24,meteohub,2013-06-18 17:51:00,
2013-06-18 12:53:00,84.0,71.1,-100.00,WSW,248,1.0,3.0,65,0.00,,,0.24,meteohub,2013-06-18 17:53:00,
2013-06-18 12:55:00,84.4,70.9,-100.00,WSW,248,1.0,3.0,64,0.00,,,0.24,meteohub,2013-06-18 17:55:00,
2013-06-18 12:59:00,84.4,70.3,-100.00,NE,45,0.0,3.0,63,0.00,,,0.24,meteohub,2013-06-18 17:59:00,
2013-06-18 13:02:00,84.4,70.9,-100.00,NNE,23,0.0,3.0,64,0.00,,,0.24,meteohub,2013-06-18 18:02:00,
2013-06-18 13:03:00,84.4,70.9,-100.00,NNE,23,0.0,3.0,64,0.00,,,0.24,meteohub,2013-06-18 18:03:00,
2013-06-18 13:05:00,84.6,71.1,-100.00,WSW,248,1.0,2.0,64,0.00,,,0.24,meteohub,2013-06-18 18:05:00,
2013-06-18 13:07:00,84.7,71.2,-100.00,ESE,113,1.0,2.0,64,0.00,,,0.24,meteohub,2013-06-18 18:07:00,
2013-06-18 13:13:00,85.1,70.5,-100.00,NE,45,1.0,2.0,62,0.00,,,0.24,meteohub,2013-06-18 18:13:00,
2013-06-18 13:15:00,85.1,70.5,-100.00,West,270,0.0,2.0,62,0.00,,,0.24,meteohub,2013-06-18 18:15:00,
2013-06-18 13:17:00,85.1,70.5,-100.00,West,270,0.0,2.0,62,0.00,,,0.24,meteohub,2013-06-18 18:17:00,
2013-06-18 13:19:00,85.3,70.7,-100.00,NW,315,0.0,2.0,62,0.00,,,0.24,meteohub,2013-06-18 18:19:00,
2013-06-18 13:23:00,85.5,70.9,-100.00,NE,45,0.0,2.0,62,0.00,,,0.24,meteohub,2013-06-18 18:23:00,
2013-06-18 13:25:00,85.5,70.9,-100.00,SE,135,0.0,2.0,62,0.00,,,0.24,meteohub,2013-06-18 18:25:00,
2013-06-18 13:27:00,85.8,71.2,-100.00,NE,45,1.0,2.0,62,0.00,,,0.24,meteohub,2013-06-18 18:27:00,
2013-06-18 13:29:00,85.8,70.9,-100.00,SE,135,0.0,2.0,61,0.00,,,0.24,meteohub,2013-06-18 18:29:00,
2013-06-18 13:31:00,86.2,71.1,-100.00,NE,45,0.0,1.0,61,0.00,,,0.24,meteohub,2013-06-18 18:31:00,
2013-06-18 13:37:00,86.7,70.7,-100.00,ENE,68,0.0,1.0,59,0.00,,,0.24,meteohub,2013-06-18 18:37:00,
2013-06-18 13:39:00,86.7,69.6,-100.00,NNE,23,2.0,2.0,57,0.00,,,0.24,meteohub,2013-06-18 18:39:00,
2013-06-18 13:43:00,86.5,70.5,-100.00,SE,135,0.0,1.0,59,0.00,,,0.24,meteohub,2013-06-18 18:43:00,
2013-06-18 13:47:00,86.9,70.9,-100.00,South,180,2.0,2.0,59,0.00,,,0.24,meteohub,2013-06-18 18:47:00,
2013-06-18 13:49:00,87.1,71.1,-100.00,SSW,203,0.0,2.0,59,0.00,,,0.24,meteohub,2013-06-18 18:49:00,
2013-06-18 13:53:00,87.4,71.4,-100.00,NNW,338,0.0,2.0,59,0.00,,,0.24,meteohub,2013-06-18 18:53:00,
2013-06-18 13:55:00,87.6,71.1,-100.00,SSE,158,2.0,2.0,58,0.00,,,0.24,meteohub,2013-06-18 18:55:00,
2013-06-18 13:59:00,88.3,72.1,-100.00,NNE,23,3.0,3.0,59,0.00,,,0.24,meteohub,2013-06-18 18:59:00,
2013-06-18 14:01:00,88.5,71.8,-100.00,NE,45,0.0,2.0,58,0.00,,,0.24,meteohub,2013-06-18 19:01:00,
2013-06-18 14:03:00,88.7,71.4,-100.00,SE,135,0.0,2.0,57,0.00,,,0.24,meteohub,2013-06-18 19:03:00,
2013-06-18 14:07:00,88.9,71.1,-100.00,SSE,158,0.0,3.0,56,0.00,,,0.24,meteohub,2013-06-18 19:07:00,
2013-06-18 14:09:00,89.2,70.9,-100.00,SE,135,1.0,3.0,55,0.00,,,0.24,meteohub,2013-06-18 19:09:00,
2013-06-18 14:11:00,89.2,70.9,-100.00,SE,135,1.0,3.0,55,0.00,,,0.24,meteohub,2013-06-18 19:11:00,
2013-06-18 14:17:00,89.2,70.3,-100.00,ESE,113,0.0,3.0,54,0.00,,,0.24,meteohub,2013-06-18 19:17:00,
2013-06-18 14:19:00,89.2,70.3,-100.00,SW,225,0.0,3.0,54,0.00,,,0.24,meteohub,2013-06-18 19:19:00,
2013-06-18 14:23:00,89.4,70.5,-100.00,SSW,203,1.0,3.0,54,0.00,,,0.24,meteohub,2013-06-18 19:23:00,
2013-06-18 14:25:00,89.4,69.4,-100.00,NNE,23,0.0,2.0,52,0.00,,,0.24,meteohub,2013-06-18 19:25:00,
2013-06-18 14:27:00,89.4,69.4,-100.00,NNE,23,0.0,2.0,52,0.00,,,0.24,meteohub,2013-06-18 19:27:00,
2013-06-18 14:32:00,89.4,70.0,-100.00,SE,135,2.0,2.0,53,0.00,,,0.24,meteohub,2013-06-18 19:32:00,
2013-06-18 14:33:00,89.1,69.1,-100.00,SE,135,1.0,2.0,52,0.00,,,0.24,meteohub,2013-06-18 19:33:00,
2013-06-18 14:35:00,89.1,69.6,-100.00,ENE,68,2.0,2.0,53,0.00,,,0.24,meteohub,2013-06-18 19:35:00,
2013-06-18 14:37:00,89.1,69.1,-100.00,East,90,0.0,2.0,52,0.00,,,0.24,meteohub,2013-06-18 19:37:00,
2013-06-18 14:39:00,89.2,70.3,-100.00,East,90,0.0,2.0,54,0.00,,,0.24,meteohub,2013-06-18 19:39:00,
2013-06-18 14:41:00,89.4,70.5,-100.00,ESE,113,1.0,2.0,54,0.00,,,0.24,meteohub,2013-06-18 19:41:00,
2013-06-18 14:45:00,89.4,68.9,-100.00,NE,45,0.0,2.0,51,0.00,,,0.24,meteohub,2013-06-18 19:45:00,
2013-06-18 14:47:00,89.4,68.9,-100.00,NE,45,0.0,2.0,51,0.00,,,0.24,meteohub,2013-06-18 19:47:00,
2013-06-18 14:49:00,89.4,70.5,-100.00,South,180,2.0,2.0,54,0.00,,,0.24,meteohub,2013-06-18 19:49:00,
2013-06-18 14:53:00,89.4,69.4,-100.00,ENE,68,0.0,2.0,52,0.00,,,0.24,meteohub,2013-06-18 19:53:00,
2013-06-18 14:55:00,89.4,69.4,-100.00,ESE,113,1.0,2.0,52,0.00,,,0.24,meteohub,2013-06-18 19:55:00,
2013-06-18 14:57:00,89.4,69.4,-100.00,ESE,113,1.0,2.0,52,0.00,,,0.24,meteohub,2013-06-18 19:57:00,
2013-06-18 14:59:00,89.4,68.9,-100.00,East,90,0.0,2.0,51,0.00,,,0.24,meteohub,2013-06-18 19:59:00,
2013-06-18 15:02:00,89.4,68.9,-100.00,East,90,0.0,2.0,51,0.00,,,0.24,meteohub,2013-06-18 20:02:00,
2013-06-18 15:03:00,89.8,69.3,-100.00,South,180,0.0,2.0,51,0.00,,,0.24,meteohub,2013-06-18 20:03:00,
2013-06-18 15:07:00,90.3,70.3,-100.00,NE,45,0.0,2.0,52,0.00,,,0.24,meteohub,2013-06-18 20:07:00,
2013-06-18 15:09:00,90.5,71.1,-100.00,South,180,0.0,2.0,53,0.00,,,0.24,meteohub,2013-06-18 20:09:00,
2013-06-18 15:16:00,91.2,70.5,-100.00,NE,45,2.0,2.0,51,0.00,,,0.24,meteohub,2013-06-18 20:16:00,
2013-06-18 15:17:00,91.2,70.5,-100.00,NE,45,2.0,2.0,51,0.00,,,0.24,meteohub,2013-06-18 20:17:00,
2013-06-18 15:20:00,91.2,69.4,-100.00,North,0,2.0,2.0,49,0.00,,,0.24,meteohub,2013-06-18 20:20:00,
2013-06-18 15:24:00,90.7,68.9,-100.00,North,0,0.0,4.0,49,0.00,,,0.24,meteohub,2013-06-18 20:24:00,
2013-06-18 15:26:00,90.5,69.3,-100.00,ESE,113,1.0,4.0,50,0.00,,,0.24,meteohub,2013-06-18 20:26:00,
2013-06-18 15:30:00,90.3,69.1,-100.00,North,0,3.0,4.0,50,0.00,,,0.24,meteohub,2013-06-18 20:30:00,
2013-06-18 15:32:00,90.1,68.9,-100.00,North,0,0.0,4.0,50,0.00,,,0.24,meteohub,2013-06-18 20:32:00,
2013-06-18 15:36:00,90.0,68.9,-100.00,NE,45,1.0,3.0,50,0.00,,,0.24,meteohub,2013-06-18 20:36:00,
2013-06-18 15:38:00,89.8,68.7,-100.00,NE,45,1.0,3.0,50,0.00,,,0.24,meteohub,2013-06-18 20:38:00,
2013-06-18 15:40:00,89.8,68.0,-100.00,ENE,68,0.0,3.0,49,0.00,,,0.24,meteohub,2013-06-18 20:40:00,
2013-06-18 15:44:00,89.4,68.4,-100.00,NE,45,0.0,3.0,50,0.00,,,0.24,meteohub,2013-06-18 20:44:00,
2013-06-18 15:46:00,89.4,67.8,-100.00,NE,45,0.0,3.0,49,0.00,,,0.24,meteohub,2013-06-18 20:46:00,
2013-06-18 15:47:00,89.4,67.8,-100.00,NE,45,0.0,3.0,49,0.00,,,0.24,meteohub,2013-06-18 20:47:00,
2013-06-18 15:48:00,89.4,68.4,-100.00,WSW,248,2.0,3.0,50,0.00,,,0.24,meteohub,2013-06-18 20:48:00,
2013-06-18 15:50:00,89.4,68.4,-100.00,SSE,158,2.0,3.0,50,0.00,,,0.24,meteohub,2013-06-18 20:50:00,
2013-06-18 15:54:00,89.2,68.7,-100.00,East,90,0.0,2.0,51,0.00,,,0.24,meteohub,2013-06-18 20:54:00,
2013-06-18 15:58:00,89.1,68.5,-100.00,ENE,68,0.0,2.0,51,0.00,,,0.24,meteohub,2013-06-18 20:58:00,
2013-06-18 16:00:00,88.9,68.4,-100.00,ENE,68,0.0,2.0,51,0.00,,,0.24,meteohub,2013-06-18 21:00:00,
2013-06-18 16:02:00,88.9,68.4,-100.00,ENE,68,0.0,2.0,51,0.00,,,0.24,meteohub,2013-06-18 21:02:00,
2013-06-18 16:08:00,88.9,68.4,-100.00,SSW,203,0.0,2.0,51,0.00,,,0.24,meteohub,2013-06-18 21:08:00,
2013-06-18 16:10:00,88.7,68.2,-100.00,NNE,23,2.0,2.0,51,0.00,,,0.24,meteohub,2013-06-18 21:10:00,
2013-06-18 16:12:00,88.7,68.7,-100.00,NNE,23,0.0,2.0,52,0.00,,,0.24,meteohub,2013-06-18 21:12:00,
2013-06-18 16:14:00,88.7,68.7,-100.00,ESE,113,0.0,2.0,52,0.00,,,0.24,meteohub,2013-06-18 21:14:00,
2013-06-18 16:16:00,88.7,68.7,-100.00,ESE,113,0.0,2.0,52,0.00,,,0.24,meteohub,2013-06-18 21:16:00,
2013-06-18 16:17:00,88.7,68.7,-100.00,ESE,113,0.0,2.0,52,0.00,,,0.24,meteohub,2013-06-18 21:17:00,
2013-06-18 16:18:00,88.7,68.7,-100.00,SW,225,3.0,3.0,52,0.00,,,0.24,meteohub,2013-06-18 21:18:00,
2013-06-18 16:20:00,88.7,68.2,-100.00,SE,135,0.0,3.0,51,0.00,,,0.24,meteohub,2013-06-18 21:20:00,
2013-06-18 16:24:00,88.7,67.6,-100.00,ESE,113,0.0,3.0,50,0.00,,,0.24,meteohub,2013-06-18 21:24:00,
2013-06-18 16:26:00,88.7,67.1,-100.00,ESE,113,1.0,3.0,49,0.00,,,0.24,meteohub,2013-06-18 21:26:00,
2013-06-18 16:30:00,88.7,68.2,-100.00,NE,45,2.0,3.0,51,0.00,,,0.24,meteohub,2013-06-18 21:30:00,
2013-06-18 16:32:00,88.7,68.2,-100.00,NE,45,2.0,3.0,51,0.00,,,0.24,meteohub,2013-06-18 21:32:00,
2013-06-18 16:36:00,89.2,68.7,-100.00,North,0,0.0,2.0,51,0.00,,,0.24,meteohub,2013-06-18 21:36:00,
2013-06-18 16:38:00,89.2,68.7,-100.00,NE,45,0.0,2.0,51,0.00,,,0.24,meteohub,2013-06-18 21:38:00,
2013-06-18 16:40:00,89.2,68.7,-100.00,SE,135,0.0,2.0,51,0.00,,,0.24,meteohub,2013-06-18 21:40:00,
2013-06-18 16:42:00,89.2,68.7,-100.00,ESE,113,0.0,2.0,51,0.00,,,0.24,meteohub,2013-06-18 21:42:00,
2013-06-18 16:46:00,88.9,68.4,-100.00,NNE,23,1.0,2.0,51,0.00,,,0.24,meteohub,2013-06-18 21:46:00,
2013-06-18 16:48:00,88.9,67.8,-100.00,East,90,0.0,2.0,50,0.00,,,0.24,meteohub,2013-06-18 21:48:00,
2013-06-18 16:50:00,88.7,67.6,-100.00,NE,45,0.0,1.0,50,0.00,,,0.24,meteohub,2013-06-18 21:50:00,
2013-06-18 16:56:00,88.3,68.0,-100.00,ENE,68,0.0,1.0,51,0.00,,,0.24,meteohub,2013-06-18 21:56:00,
2013-06-18 16:58:00,88.3,67.3,-100.00,ESE,113,1.0,1.0,50,0.00,,,0.24,meteohub,2013-06-18 21:58:00,
2013-06-18 17:00:00,88.3,67.3,-100.00,NE,45,1.0,1.0,50,0.00,,,0.24,meteohub,2013-06-18 22:00:00,
2013-06-18 17:02:00,88.3,67.3,-100.00,NE,45,1.0,1.0,50,0.00,,,0.24,meteohub,2013-06-18 22:02:00,
2013-06-18 17:06:00,88.7,67.1,-100.00,ESE,113,0.0,1.0,49,0.00,,,0.24,meteohub,2013-06-18 22:06:00,
2013-06-18 17:08:00,88.7,66.6,-100.00,ESE,113,0.0,1.0,48,0.00,,,0.24,meteohub,2013-06-18 22:08:00,
2013-06-18 17:12:00,88.9,66.6,-100.00,NE,45,0.0,1.0,48,0.00,,,0.24,meteohub,2013-06-18 22:12:00,
2013-06-18 17:14:00,88.9,66.6,-100.00,ESE,113,3.0,3.0,48,0.00,,,0.24,meteohub,2013-06-18 22:14:00,
2013-06-18 17:18:00,89.2,67.6,-100.00,ENE,68,0.0,3.0,49,0.00,,,0.24,meteohub,2013-06-18 22:18:00,
2013-06-18 17:20:00,89.4,67.8,-100.00,NE,45,0.0,3.0,49,0.00,,,0.24,meteohub,2013-06-18 22:20:00,
2013-06-18 17:22:00,89.2,67.6,-100.00,ENE,68,1.0,3.0,49,0.00,,,0.24,meteohub,2013-06-18 22:22:00,
2013-06-18 17:24:00,88.9,67.3,-100.00,ESE,113,1.0,3.0,49,0.00,,,0.24,meteohub,2013-06-18 22:24:00,
2013-06-18 17:26:00,88.9,67.8,-100.00,South,180,1.0,3.0,50,0.00,,,0.24,meteohub,2013-06-18 22:26:00,
2013-06-18 17:28:00,88.5,67.5,-100.00,ENE,68,0.0,3.0,50,0.00,,,0.24,meteohub,2013-06-18 22:28:00,
2013-06-18 17:30:00,88.3,67.3,-100.00,West,270,0.0,1.0,50,0.00,,,0.24,meteohub,2013-06-18 22:30:00,
2013-06-18 17:32:00,88.3,67.3,-100.00,West,270,0.0,1.0,50,0.00,,,0.24,meteohub,2013-06-18 22:32:00,
2013-06-18 17:36:00,88.0,67.6,-100.00,North,0,0.0,1.0,51,0.00,,,0.24,meteohub,2013-06-18 22:36:00,
2013-06-18 17:40:00,87.8,67.5,-100.00,SSE,158,1.0,1.0,51,0.00,,,0.24,meteohub,2013-06-18 22:40:00,
2013-06-18 17:42:00,87.8,67.5,-100.00,SSE,158,1.0,1.0,51,0.00,,,0.24,meteohub,2013-06-18 22:42:00,
2013-06-18 17:44:00,88.0,67.6,-100.00,SSE,158,1.0,1.0,51,0.00,,,0.24,meteohub,2013-06-18 22:44:00,
2013-06-18 17:46:00,87.8,67.5,-100.00,NE,45,2.0,2.0,51,0.00,,,0.24,meteohub,2013-06-18 22:46:00,
2013-06-18 17:47:00,87.8,67.5,-100.00,NE,45,2.0,2.0,51,0.00,,,0.24,meteohub,2013-06-18 22:47:00,
2013-06-18 17:48:00,88.0,67.6,-100.00,NNE,23,2.0,2.0,51,0.00,,,0.24,meteohub,2013-06-18 22:48:00,
2013-06-18 17:50:00,88.0,67.6,-100.00,NNE,23,1.0,2.0,51,0.00,,,0.24,meteohub,2013-06-18 22:50:00,
2013-06-18 17:54:00,88.0,67.6,-100.00,ENE,68,0.0,2.0,51,0.00,,,0.24,meteohub,2013-06-18 22:54:00,
2013-06-18 17:56:00,88.2,67.8,-100.00,SW,225,0.0,2.0,51,0.00,,,0.24,meteohub,2013-06-18 22:56:00,
2013-06-18 17:58:00,88.2,67.8,-100.00,NE,45,0.0,2.0,51,0.00,,,0.24,meteohub,2013-06-18 22:58:00,
2013-06-18 18:00:00,88.3,68.0,-100.00,East,90,0.0,2.0,51,0.00,,,0.24,meteohub,2013-06-18 23:00:00,
2013-06-18 18:06:00,88.3,67.3,-100.00,East,90,2.0,2.0,50,0.00,,,0.24,meteohub,2013-06-18 23:06:00,
2013-06-18 18:08:00,88.3,67.3,-100.00,NE,45,1.0,2.0,50,0.00,,,0.24,meteohub,2013-06-18 23:08:00,
2013-06-18 18:10:00,88.3,68.0,-100.00,ESE,113,0.0,2.0,51,0.00,,,0.24,meteohub,2013-06-18 23:10:00,
2013-06-18 18:14:00,88.3,68.0,-100.00,North,0,0.0,2.0,51,0.00,,,0.24,meteohub,2013-06-18 23:14:00,
2013-06-18 18:17:00,88.2,67.8,-100.00,NE,45,0.0,2.0,51,0.00,,,0.24,meteohub,2013-06-18 23:17:00,
2013-06-18 18:19:00,88.3,68.0,-100.00,NNW,338,0.0,2.0,51,0.00,,,0.24,meteohub,2013-06-18 23:19:00,
2013-06-18 18:21:00,88.3,68.0,-100.00,NE,45,0.0,2.0,51,0.00,,,0.24,meteohub,2013-06-18 23:21:00,
2013-06-18 18:23:00,88.2,67.8,-100.00,South,180,0.0,2.0,51,0.00,,,0.24,meteohub,2013-06-18 23:23:00,
2013-06-18 18:27:00,88.3,68.0,-100.00,WNW,293,0.0,1.0,51,0.00,,,0.24,meteohub,2013-06-18 23:27:00,
2013-06-18 18:29:00,88.3,68.0,-100.00,SE,135,2.0,2.0,51,0.00,,,0.24,meteohub,2013-06-18 23:29:00,
2013-06-18 18:31:00,88.3,67.3,-100.00,ESE,113,3.0,0.0,50,0.00,,,0.24,meteohub,2013-06-18 23:31:00,
2013-06-18 18:32:00,88.3,67.3,-100.00,ESE,113,3.0,0.0,50,0.00,,,0.24,meteohub,2013-06-18 23:32:00,
2013-06-18 18:33:00,88.5,67.5,-100.00,SW,225,1.0,0.0,50,0.00,,,0.24,meteohub,2013-06-18 23:33:00,
2013-06-18 18:37:00,88.5,67.5,-100.00,South,180,1.0,3.0,50,0.00,,,0.24,meteohub,2013-06-18 23:37:00,
2013-06-18 18:39:00,88.3,67.3,-100.00,East,90,0.0,3.0,50,0.00,,,0.24,meteohub,2013-06-18 23:39:00,
2013-06-18 18:41:00,88.3,67.3,-100.00,East,90,0.0,3.0,50,0.00,,,0.24,meteohub,2013-06-18 23:41:00,
2013-06-18 18:43:00,88.3,67.3,-100.00,North,0,0.0,3.0,50,0.00,,,0.24,meteohub,2013-06-18 23:43:00,
2013-06-18 18:47:00,88.2,67.1,-100.00,NE,45,0.0,3.0,50,0.00,,,0.24,meteohub,2013-06-18 23:47:00,
2013-06-18 18:49:00,88.0,66.9,-100.00,NNE,23,0.0,3.0,50,0.00,,,0.24,meteohub,2013-06-18 23:49:00,
2013-06-18 18:51:00,88.0,66.9,-100.00,NNE,23,0.0,1.0,50,0.00,,,0.24,meteohub,2013-06-18 23:51:00,
2013-06-18 18:53:00,87.6,66.7,-100.00,NE,45,0.0,1.0,50,0.00,,,0.24,meteohub,2013-06-18 23:53:00,
2013-06-18 18:55:00,87.6,66.7,-100.00,NE,45,0.0,1.0,50,0.00,,,0.24,meteohub,2013-06-18 23:55:00,
2013-06-18 19:01:00,87.4,66.6,-100.00,NE,45,0.0,0.0,50,0.00,,,0.24,meteohub,2013-06-19 00:01:00,
2013-06-18 19:03:00,87.4,66.6,-100.00,SSE,158,0.0,0.0,50,0.00,,,0.24,meteohub,2013-06-19 00:03:00,
2013-06-18 19:07:00,87.1,66.7,-100.00,ENE,68,0.0,0.0,51,0.00,,,0.00,meteohub,2013-06-19 00:07:00,
2013-06-18 19:11:00,86.9,66.6,-100.00,ENE,68,0.0,0.0,51,0.00,,,0.00,meteohub,2013-06-19 00:11:00,
2013-06-18 19:13:00,86.9,66.6,-100.00,ENE,68,0.0,0.0,51,0.00,,,0.00,meteohub,2013-06-19 00:13:00,
2013-06-18 19:15:00,86.9,66.6,-100.00,ENE,68,0.0,0.0,51,0.00,,,0.00,meteohub,2013-06-19 00:15:00,
2013-06-18 19:17:00,86.9,66.6,-100.00,ENE,68,0.0,0.0,51,0.00,,,0.00,meteohub,2013-06-19 00:17:00,
2013-06-18 19:21:00,86.7,66.4,-100.00,ESE,113,0.0,0.0,51,0.00,,,0.00,meteohub,2013-06-19 00:21:00,
2013-06-18 19:23:00,86.7,66.4,-100.00,ESE,113,0.0,0.0,51,0.00,,,0.00,meteohub,2013-06-19 00:23:00,
2013-06-18 19:25:00,86.7,66.4,-100.00,NE,45,0.0,0.0,51,0.00,,,0.00,meteohub,2013-06-19 00:25:00,
2013-06-18 19:27:00,86.7,66.9,-100.00,SSW,203,0.0,0.0,52,0.00,,,0.00,meteohub,2013-06-19 00:27:00,
2013-06-18 19:29:00,86.5,66.7,-100.00,SE,135,0.0,0.0,52,0.00,,,0.00,meteohub,2013-06-19 00:29:00,
2013-06-18 19:35:00,86.4,66.7,-100.00,SSE,158,0.0,0.0,52,0.00,,,0.00,meteohub,2013-06-19 00:35:00,
2013-06-18 19:37:00,86.4,66.7,-100.00,ESE,113,0.0,0.0,52,0.00,,,0.00,meteohub,2013-06-19 00:37:00,
2013-06-18 19:39:00,86.2,65.8,-100.00,East,90,0.0,0.0,51,0.00,,,0.00,meteohub,2013-06-19 00:39:00,
2013-06-18 19:41:00,86.2,65.8,-100.00,ESE,113,2.0,0.0,51,0.00,,,0.00,meteohub,2013-06-19 00:41:00,
2013-06-18 19:43:00,86.2,65.8,-100.00,SSW,203,0.0,0.0,51,0.00,,,0.00,meteohub,2013-06-19 00:43:00,
2013-06-18 19:45:00,86.2,65.8,-100.00,ESE,113,1.0,2.0,51,0.00,,,0.00,meteohub,2013-06-19 00:45:00,
2013-06-18 19:47:00,86.2,65.8,-100.00,ESE,113,2.0,2.0,51,0.00,,,0.00,meteohub,2013-06-19 00:47:00,
2013-06-18 19:49:00,86.0,65.8,-100.00,NE,45,2.0,2.0,51,0.00,,,0.00,meteohub,2013-06-19 00:49:00,
2013-06-18 19:53:00,85.8,65.7,-100.00,ENE,68,0.0,2.0,51,0.00,,,0.00,meteohub,2013-06-19 00:53:00,
2013-06-18 19:55:00,85.8,65.7,-100.00,SE,135,0.0,2.0,51,0.00,,,0.00,meteohub,2013-06-19 00:55:00,
2013-06-18 20:01:00,85.8,65.7,-100.00,ESE,113,1.0,2.0,51,0.00,,,0.00,meteohub,2013-06-19 01:01:00,
2013-06-18 20:02:00,85.8,65.7,-100.00,ESE,113,1.0,2.0,51,0.00,,,0.00,meteohub,2013-06-19 01:02:00,
2013-06-18 20:03:00,85.8,65.7,-100.00,ESE,113,1.0,2.0,51,0.00,,,0.00,meteohub,2013-06-19 01:03:00,
2013-06-18 20:07:00,85.6,65.5,-100.00,SE,135,0.0,2.0,51,0.00,,,0.00,meteohub,2013-06-19 01:07:00,
2013-06-18 20:09:00,85.6,66.0,-100.00,ESE,113,0.0,2.0,52,0.00,,,0.00,meteohub,2013-06-19 01:09:00,
2013-06-18 20:13:00,85.3,65.7,-100.00,ESE,113,0.0,2.0,52,0.00,,,0.00,meteohub,2013-06-19 01:13:00,
2013-06-18 20:15:00,85.3,65.7,-100.00,ESE,113,0.0,2.0,52,0.00,,,0.00,meteohub,2013-06-19 01:15:00,
2013-06-18 20:17:00,85.1,65.5,-100.00,ESE,113,0.0,2.0,52,0.00,,,0.00,meteohub,2013-06-19 01:17:00,
2013-06-18 20:21:00,84.9,65.8,-100.00,NE,45,0.0,2.0,53,0.00,,,0.00,meteohub,2013-06-19 01:21:00,
2013-06-18 20:23:00,84.7,65.7,-100.00,NE,45,0.0,2.0,53,0.00,,,0.00,meteohub,2013-06-19 01:23:00,
2013-06-18 20:25:00,84.7,65.7,-100.00,NE,45,0.0,0.0,53,0.00,,,0.00,meteohub,2013-06-19 01:25:00,
2013-06-18 20:29:00,84.6,65.5,-100.00,East,90,0.0,0.0,53,0.00,,,0.00,meteohub,2013-06-19 01:29:00,
2013-06-18 20:31:00,84.4,65.3,-100.00,ESE,113,0.0,0.0,53,0.00,,,0.00,meteohub,2013-06-19 01:31:00,
2013-06-18 20:32:00,84.4,65.3,-100.00,ESE,113,0.0,0.0,53,0.00,,,0.00,meteohub,2013-06-19 01:32:00,
2013-06-18 20:35:00,84.2,65.7,-100.00,South,180,0.0,0.0,54,0.00,,,0.00,meteohub,2013-06-19 01:35:00,
2013-06-18 20:37:00,84.0,65.7,-100.00,East,90,0.0,0.0,54,0.00,,,0.00,meteohub,2013-06-19 01:37:00,
2013-06-18 20:39:00,84.0,65.7,-100.00,ENE,68,2.0,0.0,54,0.00,,,0.00,meteohub,2013-06-19 01:39:00,
2013-06-18 20:41:00,83.8,65.5,-100.00,ENE,68,0.0,0.0,54,0.00,,,0.00,meteohub,2013-06-19 01:41:00,
2013-06-18 20:45:00,83.5,65.7,-100.00,ENE,68,0.0,2.0,55,0.00,,,0.00,meteohub,2013-06-19 01:45:00,
2013-06-18 20:47:00,83.5,65.7,-100.00,ENE,68,0.0,2.0,55,0.00,,,0.00,meteohub,2013-06-19 01:47:00,
2013-06-18 20:49:00,83.5,65.7,-100.00,ENE,68,0.0,2.0,55,0.00,,,0.00,meteohub,2013-06-19 01:49:00,
2013-06-18 20:53:00,83.3,65.5,-100.00,SE,135,0.0,2.0,55,0.00,,,0.00,meteohub,2013-06-19 01:53:00,
2013-06-18 20:55:00,83.1,65.8,-100.00,SE,135,0.0,0.0,56,0.00,,,0.00,meteohub,2013-06-19 01:55:00,
2013-06-18 20:59:00,82.9,65.7,-100.00,SE,135,0.0,0.0,56,0.00,,,0.00,meteohub,2013-06-19 01:59:00,
2013-06-18 21:01:00,82.9,65.7,-100.00,SE,135,0.0,0.0,56,0.00,,,0.00,meteohub,2013-06-19 02:01:00,
2013-06-18 21:03:00,82.8,65.5,-100.00,SE,135,0.0,0.0,56,0.00,,,0.00,meteohub,2013-06-19 02:03:00,
2013-06-18 21:08:00,82.8,66.0,-100.00,SE,135,0.0,0.0,57,0.00,,,0.00,meteohub,2013-06-19 02:08:00,
2013-06-18 21:10:00,82.6,65.8,-100.00,SE,135,0.0,0.0,57,0.00,,,0.00,meteohub,2013-06-19 02:10:00,
2013-06-18 21:12:00,82.6,65.8,-100.00,SE,135,0.0,0.0,57,0.00,,,0.00,meteohub,2013-06-19 02:12:00,
2013-06-18 21:16:00,82.2,66.0,-100.00,SE,135,0.0,0.0,58,0.00,,,0.00,meteohub,2013-06-19 02:16:00,
2013-06-18 21:17:00,82.2,66.0,-100.00,SE,135,0.0,0.0,58,0.00,,,0.00,meteohub,2013-06-19 02:17:00,
2013-06-18 21:18:00,82.2,66.0,-100.00,SE,135,0.0,0.0,58,0.00,,,0.00,meteohub,2013-06-19 02:18:00,
2013-06-18 21:24:00,81.9,65.7,-100.00,SE,135,0.0,0.0,58,0.00,,,0.00,meteohub,2013-06-19 02:24:00,
2013-06-18 21:26:00,81.7,65.5,-100.00,SE,135,0.0,0.0,58,0.00,,,0.00,meteohub,2013-06-19 02:26:00,
2013-06-18 21:30:00,81.3,65.1,-100.00,NE,45,0.0,0.0,58,0.00,,,0.00,meteohub,2013-06-19 02:30:00,
2013-06-18 21:32:00,81.3,65.7,-100.00,NE,45,0.0,0.0,59,0.00,,,0.00,meteohub,2013-06-19 02:32:00,
2013-06-18 21:34:00,81.3,65.7,-100.00,NE,45,0.0,0.0,59,0.00,,,0.00,meteohub,2013-06-19 02:34:00,
2013-06-18 21:38:00,81.3,65.7,-100.00,NE,45,0.0,0.0,59,0.00,,,0.00,meteohub,2013-06-19 02:38:00,
2013-06-18 21:40:00,81.1,66.0,-100.00,NE,45,0.0,0.0,60,0.00,,,0.00,meteohub,2013-06-19 02:40:00,
2013-06-18 21:42:00,81.0,65.8,-100.00,NE,45,0.0,0.0,60,0.00,,,0.00,meteohub,2013-06-19 02:42:00,
2013-06-18 21:44:00,81.0,65.8,-100.00,NE,45,0.0,0.0,60,0.00,,,0.00,meteohub,2013-06-19 02:44:00,
2013-06-18 21:46:00,80.8,66.0,-100.00,NE,45,0.0,0.0,61,0.00,,,0.00,meteohub,2013-06-19 02:46:00,
2013-06-18 21:48:00,80.8,66.0,-100.00,NE,45,0.0,0.0,61,0.00,,,0.00,meteohub,2013-06-19 02:48:00,
2013-06-18 21:52:00,80.6,65.8,-100.00,NE,45,0.0,0.0,61,0.00,,,0.00,meteohub,2013-06-19 02:52:00,
2013-06-18 21:54:00,80.4,65.7,-100.00,NE,45,0.0,0.0,61,0.00,,,0.00,meteohub,2013-06-19 02:54:00,
2013-06-18 21:56:00,80.4,65.7,-100.00,NE,45,0.0,0.0,61,0.00,,,0.00,meteohub,2013-06-19 02:56:00,
2013-06-18 21:58:00,80.2,65.5,-100.00,NE,45,0.0,0.0,61,0.00,,,0.00,meteohub,2013-06-19 02:58:00,
2013-06-18 22:02:00,80.1,65.8,-100.00,NE,45,0.0,0.0,62,0.00,,,0.00,meteohub,2013-06-19 03:02:00,
2013-06-18 22:06:00,80.1,65.8,-100.00,NE,45,0.0,0.0,62,0.00,,,0.00,meteohub,2013-06-19 03:06:00,
2013-06-18 22:08:00,79.9,65.7,-100.00,NE,45,0.0,0.0,62,0.00,,,0.00,meteohub,2013-06-19 03:08:00,
2013-06-18 22:10:00,79.9,65.7,-100.00,NE,45,0.0,0.0,62,0.00,,,0.00,meteohub,2013-06-19 03:10:00,
2013-06-18 22:14:00,79.5,65.8,-100.00,NE,45,0.0,0.0,63,0.00,,,0.00,meteohub,2013-06-19 03:14:00,
2013-06-18 22:17:00,79.5,65.8,-100.00,NE,45,0.0,0.0,63,0.00,,,0.00,meteohub,2013-06-19 03:17:00,
2013-06-18 22:18:00,79.5,65.8,-100.00,NE,45,0.0,0.0,63,0.00,,,0.00,meteohub,2013-06-19 03:18:00,
2013-06-18 22:22:00,79.3,66.0,-100.00,NE,45,0.0,0.0,64,0.00,,,0.00,meteohub,2013-06-19 03:22:00,
2013-06-18 22:24:00,79.3,66.0,-100.00,NE,45,0.0,0.0,64,0.00,,,0.00,meteohub,2013-06-19 03:24:00,
2013-06-18 22:26:00,79.2,65.8,-100.00,NE,45,0.0,0.0,64,0.00,,,0.00,meteohub,2013-06-19 03:26:00,
2013-06-18 22:28:00,79.0,65.8,-100.00,NE,45,0.0,0.0,64,0.00,,,0.00,meteohub,2013-06-19 03:28:00,
2013-06-18 22:32:00,79.0,66.2,-100.00,NE,45,0.0,0.0,65,0.00,,,0.00,meteohub,2013-06-19 03:32:00,
2013-06-18 22:34:00,79.0,66.2,-100.00,NE,45,0.0,0.0,65,0.00,,,0.00,meteohub,2013-06-19 03:34:00,
2013-06-18 22:36:00,78.8,66.0,-100.00,NE,45,0.0,0.0,65,0.00,,,0.00,meteohub,2013-06-19 03:36:00,
2013-06-18 22:38:00,78.6,65.8,-100.00,NE,45,0.0,0.0,65,0.00,,,0.00,meteohub,2013-06-19 03:38:00,
2013-06-18 22:40:00,78.6,65.8,-100.00,NE,45,0.0,0.0,65,0.00,,,0.00,meteohub,2013-06-19 03:40:00,
2013-06-18 22:46:00,78.4,65.7,-100.00,NE,45,0.0,0.0,65,0.00,,,0.00,meteohub,2013-06-19 03:46:00,
2013-06-18 22:47:00,78.4,65.7,-100.00,NE,45,0.0,0.0,65,0.00,,,0.00,meteohub,2013-06-19 03:47:00,
2013-06-18 22:52:00,78.4,66.2,-100.00,NE,45,0.0,0.0,66,0.00,,,0.00,meteohub,2013-06-19 03:52:00,
2013-06-18 22:54:00,78.3,66.0,-100.00,NE,45,0.0,0.0,66,0.00,,,0.00,meteohub,2013-06-19 03:54:00,
2013-06-18 22:58:00,78.1,65.8,-100.00,NE,45,0.0,0.0,66,0.00,,,0.00,meteohub,2013-06-19 03:58:00,
2013-06-18 23:00:00,78.1,66.2,-100.00,NE,45,0.0,0.0,67,0.00,,,0.00,meteohub,2013-06-19 04:00:00,
2013-06-18 23:02:00,77.9,66.0,-100.00,NE,45,0.0,0.0,67,0.00,,,0.00,meteohub,2013-06-19 04:02:00,
2013-06-18 23:08:00,77.7,65.8,-100.00,NE,45,0.0,0.0,67,0.00,,,0.00,meteohub,2013-06-19 04:08:00,
2013-06-18 23:12:00,77.5,66.2,-100.00,NE,45,0.0,0.0,68,0.00,,,0.00,meteohub,2013-06-19 04:12:00,
2013-06-18 23:14:00,77.5,66.2,-100.00,NE,45,0.0,0.0,68,0.00,,,0.00,meteohub,2013-06-19 04:14:00,
2013-06-18 23:18:00,77.4,66.0,-100.00,NE,45,0.0,0.0,68,0.00,,,0.00,meteohub,2013-06-19 04:18:00,
2013-06-18 23:20:00,77.2,65.8,-100.00,NE,45,0.0,0.0,68,0.00,,,0.00,meteohub,2013-06-19 04:20:00,
2013-06-18 23:22:00,77.2,66.2,-100.00,NE,45,0.0,0.0,69,0.00,,,0.00,meteohub,2013-06-19 04:22:00,
2013-06-18 23:24:00,77.2,66.2,-100.00,NE,45,0.0,0.0,69,0.00,,,0.00,meteohub,2013-06-19 04:24:00,
2013-06-18 23:26:00,77.0,66.0,-100.00,NE,45,0.0,0.0,69,0.00,,,0.00,meteohub,2013-06-19 04:26:00,
2013-06-18 23:28:00,77.0,66.0,-100.00,NE,45,0.0,0.0,69,0.00,,,0.00,meteohub,2013-06-19 04:28:00,
2013-06-18 23:32:00,76.8,65.8,-100.00,NE,45,0.0,0.0,69,0.00,,,0.00,meteohub,2013-06-19 04:32:00,
2013-06-18 23:34:00,76.8,65.8,-100.00,NE,45,0.0,0.0,69,0.00,,,0.00,meteohub,2013-06-19 04:34:00,
2013-06-18 23:38:00,76.8,65.8,-100.00,NE,45,0.0,0.0,69,0.00,,,0.00,meteohub,2013-06-19 04:38:00,
2013-06-18 23:40:00,76.6,65.7,-100.00,NE,45,0.0,0.0,69,0.00,,,0.00,meteohub,2013-06-19 04:40:00,
2013-06-18 23:42:00,76.6,65.7,-100.00,NE,45,0.0,0.0,69,0.00,,,0.00,meteohub,2013-06-19 04:42:00,
2013-06-18 23:44:00,76.6,65.7,-100.00,NE,45,0.0,0.0,69,0.00,,,0.00,meteohub,2013-06-19 04:44:00,
2013-06-18 23:46:00,76.5,66.0,-100.00,NE,45,0.0,0.0,70,0.00,,,0.00,meteohub,2013-06-19 04:46:00,
2013-06-18 23:50:00,76.3,65.8,-100.00,NE,45,0.0,0.0,70,0.00,,,0.00,meteohub,2013-06-19 04:50:00,
2013-06-18 23:52:00,76.3,65.8,-100.00,NE,45,0.0,0.0,70,0.00,,,0.00,meteohub,2013-06-19 04:52:00,
2013-06-18 23:56:00,76.1,66.0,-100.00,NE,45,0.0,0.0,71,0.00,,,0.00,meteohub,2013-06-19 04:56:00,
2013-06-18 23:58:00,76.1,66.0,-100.00,NE,45,0.0,0.0,71,0.00,,,0.00,meteohub,2013-06-19 04:58:00,